1500328801.23,46099,17.13,74582.3,4.43,3.75,3.79,0,*70
1500328802.46,46100,17.13,74576.0,4.41,3.75,3.71,0,*7B
1500328803.69,46101,17.13,74578.8,4.41,3.71,3.75,0,*7A
1500328804.92,46102,17.13,74578.3,4.41,3.75,3.75,0,*7D
1500328806.13,46103,17.13,74578.3,4.41,3.81,3.75,0,*77
1500328807.36,46104,17.13,74576.3,4.41,3.75,3.75,0,*7B
1500328808.56,46105,17.13,74578.5,4.43,3.85,3.85,0,*78
1500328809.73,46106,17.13,74578.3,4.41,3.85,3.81,0,*7D
1500328810.91,46107,17.13,74582.0,4.41,3.85,3.85,0,*78
1500328812.09,46108,17.13,74576.3,4.41,3.85,3.81,0,*73
1500328813.29,46109,17.13,74576.0,4.45,3.89,3.97,0,*7D
1500328814.47,46110,17.13,74578.3,4.41,3.85,3.93,0,*79
1500328815.65,46111,17.13,74576.8,4.41,3.85,3.93,0,*78
1500328816.85,46112,17.13,74574.3,4.43,3.89,3.89,0,*7E
1500328818.08,46113,17.13,74574.8,4.43,3.89,3.97,0,*70
1500328819.26,46114,17.13,74574.5,4.41,3.81,3.93,0,*79
1500328820.48,46115,17.13,74576.0,4.43,3.89,3.97,0,*76
1500328821.71,46116,17.13,74578.3,4.43,3.85,3.97,0,*79
1500328822.88,46117,17.13,74578.0,4.41,3.85,3.89,0,*75
1500328824.09,46118,17.13,74578.8,4.43,3.89,3.89,0,*74
1500328825.29,46119,17.13,74578.0,4.43,3.85,3.89,0,*79
1500328826.47,46120,17.13,74576.3,4.45,3.89,3.85,0,*75
1500328827.65,46121,17.13,74578.8,4.45,3.85,3.89,0,*74
1500328828.85,46122,17.19,74586.0,4.43,3.89,3.85,0,*71
1500328830.05,46123,17.13,74578.5,4.45,3.85,3.97,0,*79
1500328831.26,46124,17.13,74580.0,4.47,3.93,3.93,0,*7F
1500328832.48,46125,17.13,74582.5,4.43,3.85,3.97,0,*79
1500328833.66,46126,17.13,74582.8,4.45,3.89,3.89,0,*7F
1500328834.86,46127,17.13,74578.8,4.45,3.85,3.97,0,*7D
1500328836.04,46128,17.13,74580.8,4.45,3.85,3.89,0,*7D
1500328837.23,46129,17.13,74580.8,4.45,3.89,3.89,0,*70
1500328838.41,46130,17.13,74582.3,4.45,3.89,3.89,0,*78
1500328839.63,46131,17.13,74576.0,4.45,4.01,3.97,0,*71
1500328840.85,46132,17.13,74582.8,4.45,4.01,3.97,0,*72
1500328842.06,46133,17.13,74576.5,4.45,4.01,3.89,0,*7C
1500328843.28,46134,17.13,74576.8,4.45,3.97,3.97,0,*7C
1500328844.5,46135,17.13,74576.8,4.45,4.01,3.97,0,*75
1500328845.72,46136,17.13,74580.0,4.45,3.97,3.97,0,*7E
1500328846.95,46137,17.13,74580.5,4.45,3.97,3.97,0,*7F
1500328848.15,46138,17.13,74582.5,4.45,3.89,3.97,0,*7F
1500328849.33,46139,17.13,74582.0,4.45,3.89,3.89,0,*71
1500328850.52,46140,17.13,74580.5,4.45,3.89,3.89,0,*7F
1500328851.73,46141,17.13,74578.5,4.47,3.93,3.93,0,*7C
1500328852.91,46142,17.13,74582.3,4.45,3.89,3.89,0,*7D
1500328854.09,46143,17.13,74578.8,4.45,3.89,3.89,0,*7C
1500328855.27,46144,17.13,74578.0,4.45,3.85,3.89,0,*77
1500328856.46,46145,17.13,74576.5,4.45,3.89,3.89,0,*7A
1500328857.64,46146,17.13,74578.3,4.45,3.89,3.89,0,*79
1500328858.85,46147,17.13,74576.8,4.47,3.89,3.93,0,*71
1500328860.06,46148,17.13,74576.8,4.47,3.93,3.89,0,*7E
1500328861.28,46149,17.13,74576.3,4.45,3.97,4.01,0,*7E
1500328862.5,46150,17.13,74576.3,4.45,3.97,3.97,0,*7E
1500328863.71,46151,17.13,74576.8,4.45,3.97,3.89,0,*70
1500328864.91,46152,17.13,74576.8,4.45,3.89,3.97,0,*73
1500328866.1,46153,17.13,74582.3,4.45,3.89,3.89,0,*7D
1500328867.3,46154,17.13,74580.5,4.47,3.93,3.93,0,*78
1500328868.51,46155,17.13,74578.8,4.47,3.93,3.93,0,*79
1500328869.7,46156,17.13,74578.5,4.45,3.89,3.89,0,*78
1500328870.92,46157,17.13,74576.3,4.47,3.93,4.01,0,*77
1500328872.13,46158,17.13,74580.0,4.45,3.97,3.89,0,*79
1500328873.33,46159,17.13,74578.5,4.45,3.97,3.89,0,*78
1500328874.54,46160,17.13,74582.0,4.45,3.93,4.05,0,*75
1500328875.76,46161,17.13,74574.3,4.45,3.97,3.97,0,*7C
1500328877.01,46162,17.13,74576.8,4.47,4.01,4.05,0,*79
1500328878.23,46163,17.13,74576.8,4.45,3.97,3.97,0,*7E
1500328879.48,46164,17.13,74576.5,4.47,4.01,4.01,0,*7B
1500328880.69,46165,17.13,74578.8,4.45,3.89,3.97,0,*77
1500328881.89,46166,17.13,74576.5,4.45,3.89,4.01,0,*7C
1500328883.12,46167,17.13,74578.3,4.47,3.93,4.01,0,*74
1500328884.34,46168,17.13,74576.3,4.45,3.97,3.97,0,*75
1500328885.54,46169,17.13,74578.0,4.45,3.89,4.01,0,*73
1500328886.77,46170,17.13,74574.8,4.47,3.93,4.01,0,*72
1500328887.99,46171,17.13,74576.0,4.45,3.97,3.97,0,*7D
1500328889.24,46172,17.13,74574.5,4.47,4.01,4.01,0,*7C
1500328890.49,46173,17.13,74580.0,4.47,4.01,4.01,0,*7D
1500328891.74,46174,17.13,74576.0,4.47,4.01,4.01,0,*7A
1500328892.98,46175,17.13,74576.0,4.47,4.01,4.01,0,*7B
1500328894.21,46176,17.13,74576.8,4.47,4.01,3.93,0,*74
1500328895.46,46177,17.13,74578.8,4.47,4.01,4.01,0,*79
1500328896.69,46178,17.13,74576.8,4.47,3.93,4.01,0,*7A
1500328897.92,46179,17.13,74578.0,4.47,3.93,4.01,0,*7B
1500328899.14,46180,17.13,74580.0,4.47,3.93,4.01,0,*7D
1500328900.37,46181,17.13,74578.3,4.47,3.89,4.01,0,*77
1500328901.58,46182,17.13,74578.8,4.47,3.93,3.93,0,*73
1500328902.83,46183,17.13,74580.5,4.47,4.01,4.01,0,*72
1500328904.06,46184,17.13,74578.0,4.47,3.93,4.01,0,*79
1500328905.29,46185,17.13,74576.0,4.47,3.93,4.01,0,*78
1500328906.53,46186,17.13,74576.3,4.47,4.01,4.01,0,*77
1500328907.78,46187,17.13,74576.5,4.47,4.01,4.01,0,*76
1500328909.01,46188,17.13,74578.5,4.47,3.93,4.05,0,*71
1500328910.24,46189,17.13,74582.8,4.47,3.93,4.01,0,*74
1500328911.47,46190,17.13,74576.5,4.47,3.93,4.01,0,*7C
1500328912.68,46191,17.13,74582.0,4.47,3.93,3.93,0,*71
1500328913.89,46192,17.13,74580.5,4.47,3.93,3.93,0,*72
1500328915.12,46193,17.13,74578.5,4.47,4.01,3.93,0,*7F
1500328916.37,46194,17.13,74580.0,4.47,4.05,4.01,0,*70
1500328917.58,46195,17.13,74584.3,4.47,3.93,3.93,0,*75
1500328918.81,46196,17.13,74578.5,4.47,3.93,4.01,0,*7A
1500328920.04,46197,17.13,74582.5,4.47,3.93,4.01,0,*7B
1500328921.26,46198,17.13,74580.0,4.47,4.01,3.89,0,*7F
1500328922.45,46199,17.13,74576.3,4.49,3.93,3.93,0,*77
1500328923.63,46200,17.13,74578.8,4.49,3.93,3.93,0,*74
1500328924.84,46201,17.13,74580.8,4.47,3.89,3.93,0,*70
1500328926.03,46202,17.13,74578.5,4.49,3.93,3.93,0,*76
1500328927.21,46203,17.13,74580.3,4.49,3.89,3.93,0,*7C
1500328928.4,46204,17.13,74580.5,4.49,3.89,3.93,0,*7B
1500328929.59,46205,17.13,74582.5,4.49,3.93,3.93,0,*71
1500328930.77,46206,17.13,74582.0,4.49,3.89,3.93,0,*79
1500328931.98,46207,17.13,74580.5,4.49,3.93,4.01,0,*7F
1500328933.2,46208,17.13,74580.0,4.47,3.93,4.01,0,*7E
1500328934.39,46209,17.13,74586.0,4.45,3.89,3.89,0,*71
1500328935.6,46210,17.13,74582.8,4.47,3.89,3.93,0,*70
1500328936.81,46211,17.13,74576.8,4.47,3.89,3.93,0,*71
1500328938.02,46212,17.13,74582.5,4.47,3.93,3.89,0,*72
1500328939.2,46213,17.13,74582.0,4.49,3.89,3.89,0,*76
1500328940.39,46214,17.13,74580.8,4.49,3.93,3.93,0,*71
1500328941.57,46215,17.13,74582.5,4.49,3.89,3.89,0,*70
1500328942.78,46216,17.13,74580.5,4.47,3.89,3.81,0,*75
1500328943.99,46217,17.13,74580.5,4.47,3.89,3.93,0,*77
1500328945.18,46218,17.13,74582.8,4.49,3.89,3.93,0,*76
1500328946.36,46219,17.13,74584.8,4.45,3.93,3.93,0,*70
1500328947.54,46220,17.13,74582.3,4.49,3.93,3.89,0,*7D
1500328948.73,46221,17.13,74586.5,4.49,3.89,3.93,0,*7C
1500328949.94,46222,17.13,74580.5,4.47,3.89,3.93,0,*71
1500328951.12,46223,17.13,74582.0,4.49,3.89,3.93,0,*7E
1500328952.33,46224,17.13,74582.8,4.47,3.89,3.93,0,*77
1500328953.54,46225,17.13,74584.5,4.47,3.89,3.89,0,*7D
1500328954.75,46226,17.13,74584.5,4.47,3.93,3.89,0,*75
1500328955.94,46227,17.13,74582.3,4.49,3.89,3.89,0,*71
1500328957.15,46228,17.13,74580.8,4.47,3.89,3.89,0,*70
1500328958.35,46229,17.13,74582.3,4.47,3.81,3.89,0,*79
1500328959.54,46230,17.13,74580.5,4.49,3.81,3.89,0,*7F
1500328960.72,46231,17.13,74582.3,4.49,3.81,3.89,0,*7E
1500328961.9,46232,17.13,74584.0,4.49,3.81,3.89,0,*7D
1500328963.11,46233,17.13,74582.3,4.47,3.89,3.81,0,*72
1500328964.34,46234,17.13,74582.3,4.47,3.79,3.81,0,*7A
1500328965.55,46235,17.13,74584.5,4.47,3.81,3.81,0,*7C
1500328966.76,46236,17.13,74584.0,4.47,3.81,3.89,0,*77
1500328967.98,46237,17.13,74582.5,4.47,3.81,3.79,0,*79
1500328969.19,46238,17.13,74582.3,4.45,3.75,3.85,0,*7C
1500328970.39,46239,17.13,74584.0,4.47,3.81,3.81,0,*70
1500328971.62,46240,17.13,74586.3,4.45,3.79,3.79,0,*7C
1500328972.85,46241,17.13,74582.3,4.47,3.79,3.81,0,*78
1500328974.08,46242,17.13,74582.8,4.47,3.79,3.81,0,*7B
1500328975.31,46243,17.13,74586.0,4.45,3.79,3.79,0,*7F
1500328976.54,46244,17.13,74582.3,4.45,3.79,3.75,0,*74
1500328977.75,46245,17.13,74584.0,4.45,3.79,3.85,0,*7A
1500328978.97,46246,17.13,74582.3,4.45,3.79,3.79,0,*7A
1500328980.2,46247,17.13,74586.3,4.45,3.79,3.79,0,*7B
1500328981.41,46248,17.13,74584.3,4.47,3.81,3.81,0,*76
1500328982.66,46249,17.13,74586.5,4.47,3.79,3.79,0,*77
1500328983.89,46250,17.13,74586.5,4.45,3.79,3.75,0,*71
1500328985.12,46251,17.13,74584.0,4.45,3.71,3.75,0,*78
1500328986.35,46252,17.13,74584.0,4.45,3.71,3.75,0,*7B
1500328987.58,46253,17.13,74586.0,4.45,3.71,3.75,0,*7A
1500328988.84,46254,17.13,74586.8,4.47,3.75,3.75,0,*7B
1500328990.07,46255,17.13,74582.0,4.45,3.71,3.71,0,*78
1500328991.3,46256,17.13,74582.5,4.45,3.71,3.71,0,*7B
1500328992.54,46257,17.13,74584.3,4.45,3.75,3.71,0,*7E
1500328993.8,46258,17.13,74582.8,4.47,3.79,3.75,0,*7B
1500328995.03,46259,17.13,74586.3,4.45,3.75,3.71,0,*70
1500328996.26,46260,17.13,74582.3,4.45,3.71,3.71,0,*7E
1500328997.51,46261,17.13,74580.8,4.43,3.71,3.71,0,*79
1500328998.76,46262,17.13,74580.5,4.43,3.71,3.71,0,*7A
1500328999.99,46263,17.13,74582.3,4.45,3.71,3.71,0,*7D
1500329001.2,46264,17.13,74582.8,4.45,3.71,3.63,0,*79
1500329002.45,46265,17.13,74584.5,4.43,3.71,3.71,0,*7D
1500329003.7,46266,17.13,74584.5,4.43,3.71,3.71,0,*7E
1500329004.93,46267,17.13,74584.0,4.45,3.71,3.75,0,*7D
1500329006.19,46268,17.13,74584.0,4.43,3.75,3.75,0,*70
1500329007.44,46269,17.13,74582.8,4.43,3.79,3.79,0,*71
1500329008.67,46270,17.13,74582.0,4.45,3.79,3.75,0,*73
1500329009.93,46271,17.13,74576.3,4.43,3.75,3.75,0,*78
1500329011.18,46272,17.13,74580.8,4.43,3.79,3.79,0,*7B
1500329012.41,46273,17.13,74576.0,4.41,3.75,3.75,0,*78
1500329013.66,46274,17.13,74582.8,4.43,3.79,3.79,0,*7D
1500329014.92,46275,17.13,74582.5,4.43,3.75,3.79,0,*70
1500329016.17,46276,17.13,74582.0,4.43,3.75,3.71,0,*7B
1500329017.4,46277,17.13,74580.5,4.45,3.79,3.79,0,*78
1500329018.65,46278,17.13,74582.5,4.43,3.79,3.79,0,*71
1500329019.9,46279,17.13,74580.0,4.43,3.79,3.75,0,*7C
1500329021.16,46280,17.13,74582.8,4.43,3.75,3.75,0,*76
1500329022.36,46281,17.13,74582.8,4.45,3.71,3.63,0,*72
1500329023.56,46282,17.13,74582.0,4.45,3.63,3.71,0,*71
1500329024.76,46283,17.13,74578.0,4.45,3.71,3.63,0,*70
1500329025.99,46284,17.13,74582.3,4.43,3.71,3.63,0,*71
1500329027.21,46285,17.13,74582.3,4.43,3.71,3.63,0,*70
1500329028.46,46286,17.13,74582.8,4.43,3.71,3.71,0,*70
1500329029.7,46287,17.13,74582.8,4.41,3.67,3.75,0,*70
1500329030.95,46288,17.13,74582.3,4.43,3.75,3.79,0,*72
1500329032.21,46289,17.13,74580.3,4.43,3.75,3.75,0,*7F
1500329033.43,46290,17.13,74580.3,4.43,3.79,3.85,0,*74
1500329034.68,46291,17.13,74582.3,4.43,3.79,3.79,0,*76
1500329035.94,46292,17.13,74582.8,4.43,3.79,3.75,0,*79
1500329037.19,46293,17.13,74582.3,4.43,3.75,3.75,0,*74
1500329038.45,46294,17.13,74582.0,4.43,3.75,3.75,0,*73
1500329039.71,46295,17.13,74580.3,4.43,3.75,3.71,0,*76
1500329040.96,46296,17.13,74582.3,4.43,3.71,3.75,0,*75
1500329042.19,46297,17.13,74580.5,4.43,3.63,3.75,0,*77
1500329043.44,46298,17.13,74580.3,4.43,3.71,3.75,0,*7B
1500329044.69,46299,17.13,74582.0,4.43,3.71,3.75,0,*7A
1500329045.93,46300,17.13,74580.5,4.41,3.75,3.71,0,*79
1500329047.18,46301,17.13,74578.3,4.43,3.75,3.71,0,*7A
1500329048.44,46302,17.13,74580.0,4.43,3.79,3.75,0,*71
1500329049.66,46303,17.13,74578.5,4.41,3.71,3.71,0,*7E
1500329050.89,46304,17.13,74578.0,4.41,3.71,3.71,0,*79
1500329052.13,46305,17.13,74580.8,4.41,3.75,3.75,0,*78
1500329053.38,46306,17.13,74576.3,4.43,3.79,3.75,0,*75
1500329054.61,46307,17.13,74576.8,4.41,3.79,3.75,0,*76
1500329055.85,46308,17.13,74574.0,4.41,3.75,3.75,0,*75
1500329057.1,46309,17.13,74580.3,4.43,3.79,3.79,0,*76
1500329058.35,46310,17.13,74578.5,4.43,3.75,3.79,0,*72
1500329059.6,46311,17.13,74576.0,4.43,3.79,3.79,0,*7F
1500329060.83,46312,17.13,74582.5,4.41,3.75,3.71,0,*7A
1500329062.09,46313,17.13,74578.0,4.43,3.75,3.75,0,*7D
1500329063.32,46314,17.13,74578.5,4.41,3.71,3.71,0,*78
1500329064.54,46315,17.13,74580.5,4.43,3.85,3.79,0,*78
1500329065.72,46316,17.13,74576.8,4.45,3.85,3.89,0,*72
1500329066.93,46317,17.13,74578.5,4.41,3.75,3.81,0,*70
1500329068.16,46318,17.13,74578.3,4.43,3.79,3.85,0,*75
1500329069.38,46319,17.13,74580.0,4.43,3.79,3.85,0,*74
1500329070.61,46320,17.13,74582.0,4.43,3.79,3.81,0,*7A
1500329071.82,46321,17.13,74578.5,4.41,3.75,3.81,0,*75
1500329073.02,46322,17.13,74576.3,4.43,3.89,3.89,0,*7F
1500329074.2,46323,17.13,74582.0,4.45,3.85,3.89,0,*74
1500329075.39,46324,17.13,74580.5,4.45,3.89,3.89,0,*7F
1500329076.61,46325,17.13,74582.3,4.43,3.97,3.89,0,*77
1500329077.81,46326,17.13,74578.5,4.43,3.85,3.85,0,*7B
1500329079.02,46327,17.13,74582.0,4.43,3.89,3.89,0,*7A
1500329080.21,46328,17.13,74580.8,4.43,3.85,3.85,0,*75
1500329081.4,46329,17.13,74582.0,4.45,3.89,3.89,0,*72
1500329082.59,46330,17.13,74580.5,4.43,3.85,3.85,0,*7C
1500329083.82,46331,17.13,74584.3,4.45,3.79,3.79,0,*7B
1500329085.05,46332,17.13,74582.5,4.45,3.75,3.75,0,*78
1500329086.28,46333,17.13,74578.5,4.45,3.79,3.75,0,*75
1500329087.52,46334,17.13,74580.0,4.45,3.75,3.75,0,*7E
1500329088.78,46335,17.13,74576.0,4.43,3.75,3.75,0,*79
1500329090.03,46336,17.13,74576.8,4.43,3.75,3.75,0,*7A
1500329091.29,46337,17.13,74576.5,4.43,3.75,3.71,0,*7F
1500329092.54,46338,17.13,74578.0,4.43,3.75,3.79,0,*78
1500329093.77,46339,17.13,74576.3,4.43,3.79,3.85,0,*76
1500329095.0,46340,17.13,74578.8,4.45,3.75,3.79,0,*71
1500329096.26,46341,17.13,74580.5,4.43,3.75,3.75,0,*7A
1500329097.51,46342,17.13,74580.3,4.43,3.79,3.79,0,*79
1500329098.76,46343,17.13,74578.0,4.43,3.75,3.75,0,*78
1500329100.0,46344,17.13,74576.5,4.41,3.75,3.71,0,*79
1500329101.25,46345,17.13,74582.3,4.43,3.75,3.75,0,*7E
1500329102.48,46346,17.13,74576.5,4.41,3.71,3.71,0,*7F
1500329103.74,46347,17.13,74576.8,4.43,3.75,3.75,0,*7C
1500329105.0,46348,17.13,74582.8,4.43,3.75,3.75,0,*73
1500329106.23,46349,17.13,74578.8,4.41,3.71,3.75,0,*74
1500329107.48,46350,17.13,74582.8,4.43,3.75,3.75,0,*7A
1500329108.74,46351,17.13,74580.0,4.43,3.75,3.75,0,*7B
1500329109.99,46352,17.13,74576.5,4.43,3.71,3.71,0,*78
1500329111.22,46353,17.13,74576.0,4.41,3.71,3.67,0,*7C
1500329112.45,46354,17.13,74578.5,4.41,3.75,3.75,0,*7C
1500329113.7,46355,17.13,74576.5,4.43,3.79,3.79,0,*7F
1500329114.96,46356,17.13,74576.3,4.43,3.75,3.79,0,*70
1500329116.21,46357,17.13,74578.0,4.43,3.79,3.79,0,*7D
1500329117.39,46358,17.13,74578.0,4.41,3.81,3.81,0,*70
1500329118.57,46359,17.13,74580.8,4.45,3.85,3.89,0,*79
1500329119.77,46360,17.13,74578.8,4.43,3.85,3.89,0,*75
1500329121.02,46361,17.13,74578.0,4.43,3.79,3.79,0,*78
1500329122.27,46362,17.13,74578.0,4.43,3.79,3.79,0,*7B
1500329123.47,46363,17.13,74582.3,4.41,3.75,3.85,0,*77
1500329124.68,46364,17.13,74586.0,4.43,3.89,3.89,0,*7D
1500329125.88,46365,17.13,74582.3,4.43,3.85,3.89,0,*70
1500329127.08,46366,17.13,74582.0,4.43,3.85,3.85,0,*7F
1500329128.28,46367,17.13,74580.5,4.43,3.89,3.85,0,*72
1500329129.46,46368,17.13,74580.5,4.45,3.89,3.89,0,*77
1500329130.66,46369,17.13,74580.0,4.43,3.85,3.89,0,*7C
1500329131.84,46370,17.13,74580.8,4.41,3.85,3.85,0,*7A
1500329133.02,46371,17.13,74578.0,4.45,3.89,3.85,0,*73
1500329134.22,46372,17.13,74578.0,4.45,3.89,3.97,0,*73
1500329135.42,46373,17.13,74578.8,4.43,3.89,3.89,0,*7B
1500329136.63,46374,17.13,74580.0,4.43,3.89,3.89,0,*7C
1500329137.84,46375,17.13,74580.3,4.43,3.89,3.89,0,*7D
1500329139.04,46376,17.13,74578.3,4.43,3.89,3.85,0,*72
1500329140.23,46377,17.13,74576.8,4.43,3.85,3.85,0,*7F
1500329141.45,46378,17.13,74576.0,4.43,3.85,3.79,0,*73
1500329142.71,46379,17.13,74582.8,4.43,3.79,3.79,0,*71
1500329143.96,46380,17.13,74580.0,4.43,3.75,3.75,0,*77
1500329145.16,46381,17.13,74582.3,4.43,3.63,3.63,0,*76
1500329146.33,46382,17.13,74580.0,4.45,3.59,3.63,0,*7A
1500329147.55,46383,17.13,74576.0,4.43,3.59,3.53,0,*7E
1500329148.77,46384,17.13,74580.3,4.43,3.53,3.59,0,*79
1500329149.96,46385,17.13,74580.5,4.45,3.53,3.59,0,*7E
1500329151.13,46386,17.13,74576.5,4.41,3.55,3.55,0,*73
1500329152.33,46387,17.13,74578.0,4.43,3.59,3.63,0,*79
1500329153.53,46388,17.13,74582.5,4.41,3.55,3.49,0,*70
1500329154.74,46389,17.13,74580.0,4.43,3.53,3.59,0,*74
1500329155.92,46390,17.13,74580.3,4.41,3.59,3.59,0,*74
1500329157.14,46391,17.13,74576.0,4.43,3.63,3.67,0,*73
1500329158.37,46392,17.13,74578.0,4.41,3.67,3.67,0,*76
1500329159.6,46393,17.13,74576.8,4.41,3.71,3.67,0,*70
1500329160.85,46394,17.13,74582.0,4.43,3.79,3.75,0,*7E
1500329162.1,46395,17.13,74580.0,4.43,3.75,3.79,0,*7F
1500329163.33,46396,17.13,74580.5,4.41,3.71,3.71,0,*72
1500329164.56,46397,17.13,74578.3,4.41,3.71,3.67,0,*74
1500329165.79,46398,17.13,74580.8,4.41,3.71,3.67,0,*7B
1500329167.01,46399,17.13,74580.8,4.41,3.71,3.67,0,*7A
1500329168.27,46400,17.13,74580.5,4.43,3.75,3.71,0,*7C
1500329169.5,46401,17.13,74582.8,4.41,3.67,3.67,0,*7B
1500329170.73,46402,17.13,74580.3,4.41,3.67,3.67,0,*78
1500329171.96,46403,17.13,74582.5,4.41,3.71,3.67,0,*7E
1500329173.19,46404,17.13,74580.5,4.41,3.71,3.71,0,*7E
1500329174.39,46405,17.13,74580.3,4.41,3.59,3.67,0,*72
1500329175.58,46406,17.13,74580.0,4.41,3.59,3.67,0,*71
1500329176.81,46407,17.13,74578.8,4.41,3.67,3.67,0,*7D
1500329178.04,46408,17.13,74580.3,4.41,3.71,3.71,0,*72
1500329179.28,46409,17.13,74580.5,4.41,3.75,3.75,0,*73
1500329180.51,46410,17.13,74576.8,4.41,3.75,3.75,0,*7B
1500329181.68,46411,17.13,74576.8,4.41,3.85,3.85,0,*7A
1500329182.86,46412,17.13,74582.5,4.41,3.81,3.85,0,*7D
1500329184.08,46413,17.13,74578.0,4.43,3.89,3.97,0,*75
1500329185.26,46414,17.13,74578.8,4.41,3.81,3.81,0,*7F
1500329186.44,46415,17.13,74578.8,4.41,3.81,3.81,0,*7E
1500329187.64,46416,17.13,74582.5,4.43,3.85,3.85,0,*7F
1500329188.87,46417,17.13,74582.3,4.41,3.75,3.75,0,*7C
1500329190.04,46418,17.13,74580.3,4.41,3.85,3.85,0,*73
1500329191.24,46419,17.13,74580.0,4.43,3.85,3.89,0,*7C
1500329192.42,46420,17.13,74578.0,4.41,3.89,3.85,0,*74
1500329193.63,46421,17.13,74576.0,4.43,3.89,3.89,0,*7B
1500329194.85,46422,17.13,74574.5,4.43,3.89,3.97,0,*77
1500329196.1,46423,17.13,74576.0,4.43,3.97,3.97,0,*79
1500329197.28,46424,17.13,74578.0,4.45,3.89,3.89,0,*78
1500329198.53,46425,17.13,74578.5,4.43,3.97,3.97,0,*7F
1500329199.75,46426,17.13,74574.3,4.43,3.89,3.97,0,*73
1500329200.93,46427,17.13,74578.5,4.45,3.85,3.85,0,*7B
1500329202.1,46428,17.13,74578.0,4.45,3.85,3.85,0,*74
1500329203.33,46429,17.13,74576.0,4.41,3.71,3.71,0,*71
1500329204.52,46430,17.06,74572.0,4.43,3.63,3.63,0,*7B
1500329205.7,46431,17.13,74578.0,4.41,3.59,3.59,0,*78
1500329206.92,46432,17.13,74576.0,4.43,3.63,3.71,0,*7A
1500329208.17,46433,17.13,74578.5,4.43,3.71,3.71,0,*78
1500329209.4,46434,17.13,74576.3,4.41,3.71,3.67,0,*7A
1500329210.63,46435,17.13,74574.5,4.43,3.63,3.71,0,*7D
1500329211.83,46436,17.13,74574.8,4.41,3.67,3.59,0,*72
1500329213.06,46437,17.13,74578.3,4.45,3.71,3.71,0,*7A
1500329214.29,46438,17.13,74578.5,4.41,3.67,3.67,0,*71
1500329215.49,46439,17.13,74576.0,4.41,3.67,3.59,0,*7D
1500329216.67,46440,17.13,74578.8,4.41,3.59,3.55,0,*72
1500329217.84,46441,17.13,74576.0,4.41,3.59,3.59,0,*7F
1500329219.01,46442,17.13,74584.0,4.41,3.59,3.59,0,*7C
1500329220.22,46443,17.13,74578.3,4.41,3.67,3.59,0,*70
1500329221.42,46444,17.13,74576.3,4.41,3.67,3.59,0,*77
1500329222.62,46445,17.13,74576.3,4.41,3.59,3.67,0,*76
1500329223.82,46446,17.13,74578.0,4.41,3.67,3.59,0,*75
1500329225.05,46447,17.13,74576.0,4.41,3.67,3.67,0,*79
1500329226.28,46448,17.13,74582.3,4.41,3.67,3.67,0,*76
1500329227.51,46449,17.13,74580.0,4.41,3.67,3.67,0,*77
1500329228.71,46450,17.13,74582.3,4.41,3.59,3.67,0,*72
1500329229.94,46451,17.13,74578.5,4.41,3.49,3.49,0,*7E
1500329231.19,46452,17.13,74580.0,4.39,3.45,3.45,0,*72
1500329232.43,46453,17.13,74582.5,4.35,3.53,3.53,0,*7F
1500329233.63,46454,17.13,74580.0,4.35,3.63,3.63,0,*78
1500329234.82,46455,17.13,74576.5,4.39,3.63,3.63,0,*75
1500329236.02,46456,17.13,74578.8,4.39,3.63,3.63,0,*76
1500329237.26,46457,17.13,74582.8,4.35,3.53,3.53,0,*7B
1500329238.51,46458,17.13,74578.3,4.39,3.45,3.53,0,*7F
1500329239.72,46459,17.13,74576.5,4.39,3.55,3.53,0,*7F
1500329240.92,46460,17.13,74576.8,4.35,3.63,3.63,0,*7F
1500329242.15,46461,17.13,74576.3,4.39,3.67,3.63,0,*76
1500329243.4,46462,17.13,74572.0,4.39,3.67,3.67,0,*71
1500329244.66,46463,17.13,74574.8,4.35,3.67,3.67,0,*7C
1500329245.91,46464,17.13,74572.5,4.35,3.71,3.71,0,*7B
1500329247.16,46465,17.13,74574.5,4.39,3.71,3.71,0,*76
1500329248.39,46466,17.13,74574.8,4.39,3.71,3.81,0,*7A
1500329249.64,46467,17.13,74572.8,4.35,3.71,3.79,0,*70
1500329250.87,46468,17.13,74574.5,4.39,3.81,3.79,0,*7C
1500329252.09,46469,17.13,74576.3,4.39,3.81,3.79,0,*7D
1500329253.32,46470,17.13,74578.5,4.39,3.79,3.81,0,*75
1500329254.49,46471,17.13,74576.8,4.41,3.85,3.85,0,*7C
1500329255.67,46472,17.13,74578.0,4.41,3.85,3.81,0,*7B
1500329256.85,46473,17.13,74578.8,4.41,3.81,3.81,0,*7E
1500329258.02,46474,17.13,74572.8,4.41,3.81,3.85,0,*7D
1500329259.2,46475,17.13,74578.3,4.41,3.81,3.85,0,*7C
1500329260.38,46476,17.13,74580.5,4.41,3.85,3.81,0,*7F
1500329261.55,46477,17.13,74576.5,4.41,3.85,3.93,0,*7D
1500329262.73,46478,17.13,74580.5,4.41,3.85,3.93,0,*72
1500329263.96,46479,17.13,74578.3,4.43,3.97,3.89,0,*79
1500329265.14,46480,17.13,74582.8,4.41,3.85,3.81,0,*76
1500329266.31,46481,17.13,74582.8,4.41,3.81,3.85,0,*77
1500329267.52,46482,17.13,74582.5,4.43,3.89,3.89,0,*72
1500329268.69,46483,17.13,74582.3,4.41,3.81,3.85,0,*75
1500329269.87,46484,17.13,74580.8,4.41,3.93,3.85,0,*71
1500329271.07,46485,17.13,74580.3,4.43,3.89,3.89,0,*75
1500329272.24,46486,17.13,74576.5,4.41,3.81,3.85,0,*70
1500329273.46,46487,17.13,74580.0,4.41,3.75,3.81,0,*7E
1500329274.71,46488,17.13,74580.0,4.43,3.75,3.79,0,*74
1500329275.93,46489,17.13,74578.8,4.43,3.85,3.79,0,*7A
1500329277.14,46490,17.13,74580.8,4.43,3.89,3.89,0,*71
1500329278.31,46491,17.13,74582.3,4.41,3.85,3.85,0,*72
1500329279.52,46492,17.13,74580.0,4.43,3.89,3.89,0,*73
1500329280.71,46493,17.13,74580.5,4.43,3.85,3.85,0,*72
1500329281.93,46494,17.13,74582.5,4.43,3.85,3.79,0,*76
1500329283.16,46495,17.13,74578.0,4.43,3.85,3.75,0,*7B
1500329284.34,46496,17.13,74578.0,4.41,3.81,3.81,0,*75
1500329285.56,46497,17.13,74582.5,4.43,3.85,3.79,0,*75
1500329286.77,46498,17.13,74580.5,4.43,3.85,3.89,0,*75
1500329287.97,46499,17.13,74582.0,4.41,3.75,3.81,0,*71
1500329289.2,46500,17.13,74582.5,4.41,3.71,3.71,0,*7B
1500329290.45,46501,17.13,74580.0,4.43,3.71,3.79,0,*70
1500329291.66,46502,17.13,74580.0,4.41,3.75,3.81,0,*72
1500329292.84,46503,17.13,74582.5,4.41,3.81,3.81,0,*78
1500329294.1,46504,17.13,74580.0,4.43,3.75,3.71,0,*79
1500329295.35,46505,17.13,74582.8,4.43,3.71,3.71,0,*7C
1500329296.58,46506,17.13,74578.5,4.41,3.67,3.67,0,*7D
1500329297.81,46507,17.13,74578.0,4.41,3.71,3.67,0,*7B
1500329299.04,46508,17.13,74580.5,4.41,3.67,3.67,0,*73
1500329300.27,46509,17.13,74580.3,4.41,3.67,3.67,0,*72
1500329301.5,46510,17.13,74580.8,4.41,3.71,3.71,0,*7A
1500329302.72,46511,17.13,74576.8,4.41,3.71,3.67,0,*7C
1500329303.92,46512,17.13,74582.3,4.41,3.59,3.67,0,*75
1500329305.15,46513,17.13,74578.5,4.41,3.67,3.67,0,*79
1500329306.38,46514,17.13,74578.8,4.41,3.67,3.67,0,*7E
1500329307.61,46515,17.13,74578.3,4.41,3.67,3.67,0,*7F
1500329308.84,46516,17.13,74580.3,4.41,3.71,3.67,0,*7B
1500329310.07,46517,17.13,74582.5,4.41,3.71,3.67,0,*7A
1500329311.3,46518,17.13,74582.3,4.41,3.71,3.71,0,*72
1500329312.52,46519,17.13,74580.5,4.41,3.71,3.71,0,*73
1500329313.75,46520,17.13,74582.3,4.41,3.71,3.71,0,*79
1500329314.99,46521,17.13,74580.0,4.41,3.75,3.71,0,*7C
1500329316.22,46522,17.13,74578.0,4.41,3.75,3.75,0,*7B
1500329317.45,46523,17.13,74580.3,4.41,3.71,3.75,0,*7E
1500329318.68,46524,17.13,74582.3,4.41,3.75,3.71,0,*79
1500329319.91,46525,17.06,74578.8,4.41,3.71,3.71,0,*7C
1500329321.14,46526,17.13,74578.8,4.41,3.71,3.71,0,*7F
1500329322.4,46527,17.13,74580.8,4.39,3.67,3.67,0,*71
1500329323.65,46528,17.13,74576.5,4.39,3.67,3.67,0,*7E
1500329324.9,46529,17.13,74578.0,4.39,3.67,3.67,0,*7F
1500329326.13,46530,17.13,74576.8,4.41,3.71,3.71,0,*78
1500329327.36,46531,17.13,74576.0,4.41,3.71,3.71,0,*79
1500329328.59,46532,17.13,74580.0,4.41,3.71,3.71,0,*7A
1500329329.82,46533,17.13,74578.5,4.41,3.67,3.71,0,*7C
1500329331.05,46534,17.13,74576.8,4.41,3.71,3.71,0,*7C
1500329332.31,46535,17.13,74580.8,4.39,3.67,3.71,0,*75